Preview of NWS' New Version of Forecast
This preview is not operational and should not be used for support decisions.

Regional Weather Roundup (RWR)

Issued by Glasgow, MT (GGW)

                            
000
ASUS45 KGGW 160815
RWRGGW
HOURLY REGIONAL WEATHER ROUNDUP FOR NORTHEAST MONTANA
NATIONAL WEATHER SERVICE GLASGOW MONTANA
200 AM MDT TUE OCT 16 2018

NOTE: "FAIR" INDICATES FEW OR NO CLOUDS BELOW 12,000 FEET WITH NO
SIGNIFICANT WEATHER AND/OR OBSTRUCTIONS TO VISISBILITY.

NORTHEAST MONTANA

  
CITY           SKY/WX    TMP DP  RH WIND       PRES   REMARKS
GLASGOW        CLOUDY    50  35  56 NW6       30.13R                  
PLENTYWOOD       N/A     41  33  73 NW6         N/A                   
WOLF POINT     CLOUDY    48  36  63 W5        30.13R                  
JORDAN           N/A     47  31  53 W6        30.17R                  
WINNETT          N/A     52  26  36 W7          N/A                   
SIDNEY           N/A     46  34  62 NW8       30.10R                  
GLENDIVE       CLOUDY    49  34  56 NW8       30.13R                  
MALTA            N/A     52  34  50 W6          N/A                   

FORT PECK REPORTS

  
CITY           SKY/WX    TMP DP  RH WIND       PRES   REMARKS
FORT PECK        N/A     51  35  54 W14         N/A                   
THE PINES        N/A     52  30  43 W7          N/A                   

SOUTHEAST MONTANA

  
CITY           SKY/WX    TMP DP  RH WIND       PRES   REMARKS
BILLINGS       MOCLDY    39  23  52 SW20      30.29R                  
MILES CITY     CLOUDY    47  32  56 NW8       30.18R                  
BAKER          CLOUDY    49  31  49 W13       30.14R                  
LIVINGSTON     CLEAR     33  27  78 NW14      30.36R                  

CENTRAL MONTANA

  
CITY           SKY/WX    TMP DP  RH WIND       PRES   REMARKS
HAVRE          CLOUDY    50  31  48 SW14      30.23R                  
LEWISTOWN      CLOUDY    42  30  62 SW8       30.27R                  
GREAT FALLS    CLOUDY    46  28  49 SW13      30.29R                  
CUT BANK       CLOUDY    46  30  53 W9        30.29R                  
HELENA         CLEAR     35  26  69 W3        30.37R                  
BUTTE          CLEAR     25  21  85 SE3       30.41R                  
BOZEMAN        CLEAR     26  23  88 SE6       30.41R                  

WESTERN MONTANA

  
CITY           SKY/WX    TMP DP  RH WIND       PRES   REMARKS
MISSOULA       CLEAR     32  26  78 CALM      30.43R                  
KALISPELL      NOT AVBL                                               

NORTH DAKOTA

  
CITY           SKY/WX    TMP DP  RH WIND       PRES   REMARKS
WILLISTON      MOCLDY    47  33  58 NW10      30.07R                  
DICKINSON      MOCLDY    43  33  68 W8        30.07R                  
MINOT          PTCLDY    44  33  65 W15       29.99R                  
BISMARCK       MOCLDY    45  34  65 W9        30.03R                  

SOUTHERN SASKATCHEWAN

  
CITY           SKY/WX    TMP DP  RH WIND       PRES   REMARKS
REGINA         CLEAR     30  28  93 W7        30.06R                  
ESTEVAN        CLEAR     30  28  93 W8        30.03R                  
SWIFT CURRENT  CLOUDY    41  36  81 W9        30.13R